Waarnemingen

Advertentie
Mijn weer
Strasbourg, Frankrijk (7190): temperatuur & dauwpunt: 15.01.2017 18:00:00 - 21.01.2017 18:00:00 (CET)Strasbourg, Frankrijk (7190): temperatuur 5cm: 15.01.2017 18:00:00 - 21.01.2017 18:00:00 (CET)Strasbourg, Frankrijk (7190): temperatuur -20cm & temperatuur -100cm: 15.01.2017 18:00:00 - 21.01.2017 18:00:00 (CET)Strasbourg, Frankrijk (7190): windsnelheid & windstoten: 15.01.2017 18:00:00 - 21.01.2017 18:00:00 (CET)Strasbourg, Frankrijk (7190): windrichting: 15.01.2017 18:00:00 - 21.01.2017 18:00:00 (CET)Strasbourg, Frankrijk (7190): luchtdruk: 15.01.2017 18:00:00 - 21.01.2017 18:00:00 (CET)Strasbourg, Frankrijk (7190): zicht: 15.01.2017 18:00:00 - 21.01.2017 18:00:00 (CET)Strasbourg, Frankrijk (7190): Zonneschijnduur: 15.01.2017 18:00:00 - 21.01.2017 18:00:00 (CET)Strasbourg, Frankrijk (7190): neerslag: 15.01.2017 18:00:00 - 21.01.2017 18:00:00 (CET)
Datum & Tijd tt [°C] td [°C] tt 5cm [°C] tt -20cm [°C] tt -100cm [°C] ff [km/u] ff [kn] fx [km/u] fx [kn] dd ppp [hPa] vv [km] sd [min] rr [mm]
21.01.2017 18:00:00 -3,4 -5,9 -5,6 0,0 4,6 5 3 10 6 N 1029,5 4,0 0 0,0
21.01.2017 17:00:00 -1,7 -5,9 -2,9 0,0 4,7 5 3 14 7 NNW 1029,2 4,3 14 0,0
21.01.2017 16:00:00 -0,4 -5,8 2,4 0,0 4,7 6 3 11 6 N 1029,2 6 60 0,0
21.01.2017 15:00:00 -0,2 -6,2 4,0 0,0 4,7 4 2 8 5 N 1029,4 5 60 0,0
21.01.2017 14:00:00 -0,8 -6,0 2,7 0,0 4,7 3 1 9 5 NO 1029,9 5 60 0,0
21.01.2017 13:00:00 -1,9 -6,3 1,1 0,0 4,7 4 2 10 5 ZZO 1030,8 4,8 60 0,0
21.01.2017 12:00:00 -3,2 -6,7 -0,4 0,0 4,7 4 2 9 5 ZW 1031,3 4,1 60 0,0
21.01.2017 11:00:00 -4,6 -7,0 -5,0 0,0 4,7 3 2 9 5 WNW 1032,2 3,4 60 0,0
21.01.2017 10:00:00 -7,3 -8,7 -9,5 0,0 4,7 3 1 9 5 NW 1032,2 2,9 49 0,0
21.01.2017 09:00:00 -9,9 -11,4 -12,9 0,1 4,7 2 1 10 5 W 1032,3 4,0 0 0,0
21.01.2017 08:00:00 -10,3 -11,6 -13,2 0,1 4,7 0 0 10 6 N 1032,2 4,0 0 0,0
21.01.2017 07:00:00 -10,5 -12,0 -13,2 0,1 4,7 2 1 8 5 Z 1032,1 3,7 0 0,0
21.01.2017 06:00:00 -9,7 -10,9 -12,9 0,1 4,7 0 0 9 5 N 1031,9 4,0 0 0,0
21.01.2017 05:00:00 -9,8 -11,0 -12,7 0,1 4,7 0 0 9 5 N 1032,0 3,1 0 0,0
21.01.2017 04:00:00 -9,9 -11,2 -12,5 0,1 4,7 3 2 16 9 W 1032,1 3,5 0 0,0
21.01.2017 03:00:00 -8,9 -10,0 -12,2 0,2 4,7 2 1 12 6 WZW 1032,3 2,5 0 0,0
21.01.2017 02:00:00 -9,2 -10,5 -12,2 0,2 4,7 5 3 8 4 ZZO 1032,4 2,9 0 0,0
21.01.2017 01:00:00 -8,8 -10,1 -11,5 0,2 4,7 3 1 9 5 ZZO 1032,7 3,1 0 0,0
21.01.2017 00:00:00 -8,2 -9,7 -10,7 0,2 4,7 5 3 8 4 ZZW 1032,8 3,8 0 0,0
20.01.2017 23:00:00 -7,2 -8,7 -10,0 0,2 4,7 2 1 10 6 NW 1032,9 4,0 0 0,0
20.01.2017 22:00:00 -7,0 -8,7 -9,8 0,2 4,7 3 2 13 7 Z 1032,9 4,9 0 0,0
20.01.2017 21:00:00 -5,8 -7,9 -9,0 0,2 4,7 0 0 24 13 N 1032,8 5 0 0,0
20.01.2017 20:00:00 -5,0 -7,6 -7,9 0,2 4,8 4 2 10 5 Z 1032,7 6 0 0,0
20.01.2017 19:00:00 -4,8 -7,4 -7,0 0,2 4,7 5 3 8 4 Z 1032,7 6 0 0,0
20.01.2017 18:00:00 -3,7 -7,1 -6,1 0,2 4,8 6 3 9 5 ZW 1032,3 8 0 0,0
20.01.2017 17:00:00 -2,1 -7,0 -3,1 0,2 4,7 9 5 11 6 ZW 1032,3 9 27 0,0
20.01.2017 16:00:00 0,3 -7,0 3,4 0,2 4,8 0 0 7 4 N 1032,1 11 60 0,0
20.01.2017 15:00:00 -0,2 -7,0 3,6 0,2 4,8 3 1 10 5 W 1032,3 11 60 0,0
20.01.2017 14:00:00 -0,1 -6,7 3,0 0,2 4,8 4 2 9 5 NO 1032,4 11 60 0,0
20.01.2017 13:00:00 -1,2 -7,4 2,7 0,2 4,8 3 1 9 5 NW 1033,0 8 60 0,0
20.01.2017 12:00:00 -2,5 -7,4 0,9 0,2 4,8 4 2 11 6 N 1033,8 9 60 0,0
20.01.2017 11:00:00 -3,8 -7,4 -1,2 0,2 4,8 6 3 11 6 N 1034,2 8 60 0,0
20.01.2017 10:00:00 -5,5 -8,4 -5,8 0,3 4,8 - - 9 5 - 1034,6 10 60 0,0
20.01.2017 09:00:00 -7,8 -9,9 -9,1 0,3 4,8 4 2 11 6 WNW 1034,3 8 16 0,0
20.01.2017 08:00:00 -8,0 -10,2 -10,0 0,3 4,8 4 2 10 6 NW 1034,5 10 0 0,0
20.01.2017 07:00:00 -8,7 -10,6 -9,9 0,3 4,8 8 4 12 7 NNW 1034,2 10 0 0,0
20.01.2017 06:00:00 -8,6 -10,2 -10,2 0,3 4,8 4 2 11 6 WNW 1034,1 12 0 0,0
20.01.2017 05:00:00 -8,6 -10,4 -10,6 0,3 4,8 3 2 16 9 W 1034,1 10 0 0,0
20.01.2017 04:00:00 -7,7 -9,9 -10,0 0,3 4,8 7 4 12 6 W 1034,0 9 0 0,0
20.01.2017 03:00:00 -7,0 -9,6 -10,0 0,4 4,8 5 3 17 9 WZW 1034,2 8 0 0,0
20.01.2017 02:00:00 -8,2 -9,7 -10,0 0,4 4,8 9 5 11 6 NNW 1034,3 7 0 0,0
20.01.2017 01:00:00 -7,6 -9,7 -9,6 0,4 4,8 5 3 10 6 WZW 1034,3 7 0 0,0
20.01.2017 00:00:00 -7,8 -9,7 -9,5 0,4 4,8 4 2 12 7 WNW 1034,5 7 0 0,0
19.01.2017 23:00:00 -6,9 -9,3 -10,0 0,4 4,8 4 2 16 9 W 1034,9 8 0 0,0
19.01.2017 22:00:00 -6,1 -9,6 -8,3 0,4 4,8 - - 9 5 - 1034,8 9 0 0,0
19.01.2017 21:00:00 -4,5 -8,4 -6,0 0,4 4,8 7 4 14 8 NNW 1034,6 12 0 0,0
19.01.2017 20:00:00 -3,4 -8,3 -5,2 0,4 4,8 11 6 25 14 N 1034,3 12 0 0,0
19.01.2017 19:00:00 -3,1 -8,2 -4,6 0,4 4,9 12 6 25 13 NNO 1034,4 13 0 0,0
19.01.2017 18:00:00 -2,5 -8,2 -3,8 0,4 4,9 12 6 21 11 NNO 1034,4 13 0 0,0
19.01.2017 17:00:00 -1,8 -7,9 -2,7 0,4 4,9 11 6 26 14 NNO 1034,2 13 29 0,0
19.01.2017 16:00:00 -0,8 -7,4 1,4 0,4 4,9 18 10 27 14 NNO 1033,9 12 60 0,0
19.01.2017 15:00:00 -0,5 -7,3 2,3 0,4 4,9 18 10 27 15 NNO 1034,2 13 60 0,0
19.01.2017 14:00:00 -1,0 -7,4 2,1 0,4 4,9 18 10 23 13 NO 1034,3 9 60 0,0
19.01.2017 13:00:00 -1,9 -7,8 1,0 0,4 4,9 17 9 26 14 NO 1034,8 11 60 0,0
19.01.2017 12:00:00 -2,7 -8,2 0,0 0,4 4,9 13 7 19 11 NNO 1035,4 8 60 0,0
19.01.2017 11:00:00 -3,6 -8,3 -0,6 0,4 4,9 9 5 19 10 NO 1035,8 10 60 0,0
19.01.2017 10:00:00 -4,6 -8,4 -4,8 0,5 4,9 13 7 28 15 N 1035,5 10 60 0,0
19.01.2017 09:00:00 -6,0 -8,9 -7,6 0,5 4,9 11 6 24 13 N 1035,6 10 6 0,0
19.01.2017 08:00:00 -6,7 -9,3 -7,9 0,5 4,9 11 6 24 13 N 1035,4 9 0 0,0
19.01.2017 07:00:00 -6,3 -9,0 -7,1 0,5 4,9 17 9 28 15 NNO 1034,9 9 0 0,0
19.01.2017 06:00:00 -6,2 -8,9 -7,5 0,5 4,9 16 9 23 12 NNO 1035,0 9 0 0,0
19.01.2017 05:00:00 -6,0 -8,9 -7,4 0,5 4,9 9 5 22 12 N 1034,9 10 0 0,0
19.01.2017 04:00:00 -5,8 -8,7 -7,0 0,6 4,9 16 9 29 15 NNO 1034,7 10 0 0,0
19.01.2017 03:00:00 -5,4 -8,6 -6,5 0,6 4,9 16 8 30 16 NNO 1034,7 11 0 0,0
19.01.2017 02:00:00 -5,2 -8,4 -6,0 0,6 4,9 17 9 31 17 NNO 1034,6 11 0 0,0
19.01.2017 01:00:00 -5,0 -8,4 -5,9 0,6 4,9 19 10 28 15 NNO 1034,3 11 0 0,0
19.01.2017 00:00:00 -4,8 -8,4 -5,9 0,6 4,9 16 9 27 15 NNO 1034,6 11 0 0,0
18.01.2017 23:00:00 -4,4 -8,2 -5,6 0,6 4,9 15 8 31 17 NNO 1034,6 11 0 0,0
18.01.2017 22:00:00 -3,8 -7,9 -4,8 0,6 4,9 22 12 32 17 NO 1035,0 12 0 0,0
18.01.2017 21:00:00 -3,3 -8,0 -4,4 0,6 4,9 20 11 36 20 NNO 1034,9 13 0 0,0
18.01.2017 20:00:00 -2,9 -8,0 -3,8 0,6 4,9 27 15 39 21 NO 1035,1 15 0 0,0
18.01.2017 19:00:00 -2,4 -7,9 -3,5 0,6 4,9 22 12 39 21 NO 1034,9 18 0 0,0
18.01.2017 18:00:00 -2,2 -7,5 -3,1 0,6 5,0 18 10 39 21 NNO 1034,8 20 0 0,0
18.01.2017 17:00:00 -1,2 -8,2 -1,8 0,6 4,9 25 13 43 23 NNO 1034,8 25 32 0,0
18.01.2017 16:00:00 -0,3 -7,6 1,4 0,6 4,9 27 14 46 25 NO 1034,4 27 60 0,0
18.01.2017 15:00:00 0,3 -7,7 3,2 0,6 4,9 27 15 45 24 NNO 1034,2 20 60 0,0
18.01.2017 14:00:00 0,7 -7,6 3,3 0,6 4,9 31 17 44 24 NNO 1034,0 19 60 0,0
18.01.2017 13:00:00 0,4 -7,6 2,3 0,6 5,0 26 14 41 22 NO 1034,2 26 60 0,0
18.01.2017 12:00:00 -0,2 -7,9 0,9 0,7 5,0 23 12 48 26 NO 1034,7 28 60 0,0
18.01.2017 11:00:00 -1,2 -8,4 -0,2 0,7 5,0 32 17 48 26 NO 1035,1 29 60 0,0
18.01.2017 10:00:00 -2,0 -8,5 -2,2 0,7 5,0 30 16 45 24 NO 1035,4 28 60 0,0
18.01.2017 09:00:00 -3,1 -8,2 -5,1 0,7 5,0 18 10 29 16 NNO 1035,3 27 17 0,0
18.01.2017 08:00:00 -3,9 -7,9 -5,0 0,7 5,0 13 7 28 15 N 1034,8 25 0 0,0
18.01.2017 07:00:00 -3,5 -8,0 -4,7 0,8 5,0 20 11 34 18 NNO 1034,5 29 0 0,0
18.01.2017 06:00:00 -3,4 -8,3 -5,2 0,8 5,0 22 12 35 19 NO 1034,3 33 0 0,0
18.01.2017 05:00:00 -3,6 -8,1 -4,8 0,8 5,0 17 9 34 18 NNO 1034,4 31 0 0,0
18.01.2017 04:00:00 -3,8 -7,9 -5,4 0,8 5,0 18 10 30 16 NNO 1034,5 29 0 0,0
18.01.2017 03:00:00 -4,1 -7,9 -5,3 0,8 5,0 21 12 29 16 NNO 1034,8 30 0 0,0
18.01.2017 02:00:00 -3,6 -7,7 -4,8 0,8 5,0 17 9 31 17 NNO 1034,7 31 0 0,0
18.01.2017 01:00:00 -3,5 -7,3 -4,6 0,8 5,0 17 9 35 19 NNO 1034,8 29 0 0,0
18.01.2017 00:00:00 -3,0 -7,0 -4,3 0,8 5,0 21 11 32 17 NO 1034,8 30 0 0,0
17.01.2017 23:00:00 -3,0 -7,0 -4,1 0,9 5,0 19 10 37 20 NNO 1034,7 33 0 0,0
17.01.2017 22:00:00 -2,6 -6,8 -3,6 0,8 5,0 22 12 34 18 NNO 1034,8 37 0 0,0
17.01.2017 21:00:00 -2,3 -6,7 -3,4 0,8 5,0 18 10 40 22 N 1034,5 40 0 0,0
17.01.2017 20:00:00 -1,7 -6,5 -2,7 0,9 5,0 27 15 46 25 NO 1034,2 35 0 0,0
17.01.2017 19:00:00 -1,6 -6,9 -2,6 0,8 5,0 24 13 42 23 NNO 1034,0 39 0 0,0
17.01.2017 18:00:00 -1,5 -7,0 -2,2 0,9 5,0 25 14 40 22 NNO 1033,9 41 0 0,0
17.01.2017 17:00:00 -1,0 -7,6 -1,7 0,9 5,0 27 15 43 23 NO 1033,5 47 19 0,0
17.01.2017 16:00:00 -0,7 -7,7 -0,7 0,9 5,0 31 17 44 24 NO 1033,3 41 10 0,0
17.01.2017 15:00:00 -0,3 -6,9 0,1 0,9 5,0 26 14 48 26 NO 1033,0 46 35 0,0
17.01.2017 14:00:00 -0,2 -6,4 0,7 0,9 5,0 27 15 41 22 NO 1033,0 30 49 0,0
17.01.2017 13:00:00 -0,5 -6,1 0,0 0,9 5,0 28 15 38 20 NO 1033,3 31 55 0,0
17.01.2017 12:00:00 -1,0 -6,0 -1,8 0,9 5,0 23 12 42 23 NNO 1033,8 33 20 0,0
17.01.2017 11:00:00 - - -2,6 0,9 5,0 20 11 33 18 NO - 20 0 0,0
17.01.2017 10:00:00 -3,1 -5,4 -3,2 1,0 5,0 18 10 35 19 NNO 1034,1 5 0 0,0
17.01.2017 09:00:00 -3,5 -6,1 -5,1 1,0 5,0 24 13 36 19 NNO 1033,6 20 8 0,0
17.01.2017 08:00:00 -4,3 -7,1 -5,2 1,0 5,0 21 11 34 19 N 1033,3 20 0 0,0
17.01.2017 07:00:00 -4,4 -7,8 -5,4 1,0 5,0 18 10 39 21 NNO 1032,7 37 0 0,0
17.01.2017 06:00:00 -4,6 -7,9 -5,4 1,0 5,0 25 14 46 25 NNO 1032,5 37 0 0,0
17.01.2017 05:00:00 -4,3 -6,6 -5,1 1,0 5,0 20 11 31 17 N 1031,9 14 0 0,0
17.01.2017 04:00:00 -3,8 -6,1 -4,8 1,1 5,0 21 11 32 17 N 1031,5 10 0 0,0
17.01.2017 03:00:00 -3,4 -6,0 -4,6 1,1 5,0 20 11 34 18 N 1031,4 21 0 0,0
17.01.2017 02:00:00 -3,5 -6,3 -4,5 1,1 5,0 20 11 29 16 N 1030,7 20 0 0,0
17.01.2017 01:00:00 -3,2 -6,0 -4,4 1,1 5,0 19 10 26 14 N 1030,4 19 0 0,0
17.01.2017 00:00:00 -2,7 -5,8 -4,0 1,1 5,0 15 8 23 12 N 1030,1 27 0 0,0
16.01.2017 23:00:00 -2,2 -6,4 -3,2 1,2 5,0 14 8 25 14 NNO 1029,7 40 0 0,0
16.01.2017 22:00:00 -1,4 -5,1 -1,7 1,2 5,0 15 8 27 14 NNO 1029,5 28 0 0,0
16.01.2017 21:00:00 -1,3 -4,8 -1,6 1,2 5,1 15 8 27 15 NNO 1029,0 22 0 0,0
16.01.2017 20:00:00 -1,2 -4,9 -1,7 1,2 5,0 16 8 24 13 N 1028,4 25 0 0,0
16.01.2017 19:00:00 -1,3 -4,8 -2,2 1,2 5,1 16 9 28 15 NNO 1027,9 28 0 0,0
16.01.2017 18:00:00 -1,1 -4,6 -1,9 1,2 5,1 19 11 26 14 NNO 1027,3 21 0 0,0
16.01.2017 17:00:00 -0,5 -4,4 -1,2 1,2 5,0 16 9 29 15 NO 1026,8 27 14 0,0
16.01.2017 16:00:00 0,5 -3,8 0,3 1,2 5,1 15 8 26 14 NNO 1026,2 21 17 0,0
16.01.2017 15:00:00 1,4 -3,5 2,3 1,1 5,1 14 7 26 14 NNO 1025,9 24 41 0,0
16.01.2017 14:00:00 1,2 -4,3 1,5 1,1 5,1 16 9 25 13 NO 1025,6 17 46 0,0
16.01.2017 13:00:00 0,1 -3,1 0,7 1,1 5,1 16 9 24 13 NO 1026,0 16 0 0,0
16.01.2017 12:00:00 0,0 -2,9 0,8 1,1 5,0 12 6 19 10 N 1025,9 12 1 0,0
16.01.2017 11:00:00 0,0 -3,0 0,8 1,2 5,0 11 6 21 12 N 1025,9 10 29 0,0
16.01.2017 10:00:00 -0,5 -2,6 -1,7 1,2 5,1 7 4 11 6 N 1025,6 13 14 0,0
16.01.2017 09:00:00 -1,4 -2,7 -2,2 1,2 5,0 5 3 16 9 N 1025,4 11 0 0,0
16.01.2017 08:00:00 -1,5 -2,8 -2,8 1,2 5,0 10 5 16 9 N 1024,8 13 0 0,0
16.01.2017 07:00:00 -1,3 -2,4 -2,7 1,2 5,1 5 3 11 6 NNO 1024,3 13 0 0,0
16.01.2017 06:00:00 -1,0 -2,1 -2,3 1,3 5,1 8 4 11 6 NNW 1023,9 16 0 0,0
16.01.2017 05:00:00 -1,6 -2,2 -4,0 1,3 5,1 3 1 9 5 NW 1023,8 6 0 0,0
16.01.2017 04:00:00 -1,5 -2,2 -3,6 1,3 5,0 2 1 10 5 NNW 1023,6 7 0 0,0
16.01.2017 03:00:00 -1,2 -1,6 -2,9 1,3 5,1 3 2 11 6 N 1023,8 4,7 0 0,0
16.01.2017 02:00:00 -2,1 -2,8 -2,9 1,4 5,1 2 1 12 6 Z 1023,7 4,1 0 0,0
16.01.2017 01:00:00 -1,2 -1,6 -2,7 1,4 5,1 5 3 11 6 WNW 1023,9 3,6 0 0,0
16.01.2017 00:00:00 -1,6 -2,4 -4,1 1,4 5,0 0 0 8 5 N 1024,1 3,9 0 0,0
15.01.2017 23:00:00 -1,1 -1,8 -2,3 1,5 5,1 6 3 10 5 OZO 1023,9 9 0 0,0
15.01.2017 22:00:00 -1,3 -2,0 -2,6 1,6 5,0 4 2 11 6 Z 1024,0 7 0 0,0
15.01.2017 21:00:00 -1,3 -2,0 -3,4 1,6 5,1 0 0 10 5 N 1024,1 3,9 0 0,0
15.01.2017 20:00:00 -1,2 -2,0 -3,1 1,6 5,1 8 4 13 7 Z 1023,9 9 0 0,0
15.01.2017 19:00:00 -1,1 -2,2 -2,4 1,6 5,0 7 4 10 5 Z 1023,8 9 0 0,0
15.01.2017 18:00:00 -0,5 -2,6 -1,8 1,6 5,1 6 3 11 6 ZZW 1023,7 16 0 0,0

tt = temperatuur
td = dauwpunt
tt 5cm = temperatuur 5cm
tt -20cm = temperatuur -20cm
tt -100cm = temperatuur -100cm
ff = windsnelheid
fx = windstoten
dd = windrichting
ppp = luchtdruk
vv = zicht
sd = Zonneschijnduur
rr = neerslag

Weerstations in de omgeving